Regional Weather Roundup
Issued by NWS Goodland, KS

Home | Current Version | Previous Version | Graphics & Text | Print | Product List | Glossary On
Versions: 1 2 3 4 5 6 7 8 9 10 11 12 13 14 15 16 17 18 19 20 21 22 23 24 25 26 27 28 29 30 31 32 33 34 35 36 37 38 39 40 41 42 43 44 45 46 47 48 49 50
000
ASUS43 KGLD 291359
RWRGLD

GOODLAND FORECAST AREA HOURLY WEATHER ROUNDUP
NATIONAL WEATHER SERVICE GOODLAND KS
800 AM MDT WED JUL 29 2015

...OFFICIAL OBSERVATIONS...

CITY           SKY/WX    TMP DP  RH WIND       PRES   REMARKS
GOODLAND KS    MOSUNNY   67  53  61 E9        30.28S
HILL CITY KS   PTSUNNY   69  61  75 NE5       30.26S
IMPERIAL NEB   MOSUNNY   63  51  65 E5        30.31R
MCCOOK NEB     MOSUNNY   65  55  70 E3        30.30R
AKRON CO       MOSUNNY   67  50  54 SE12      30.32S
BURLINGTON CO  MOSUNNY   65  54  67 E12       30.29S
LIMON CO       MOSUNNY   61  50  67 SE5       30.34S
$$

...UNOFFICIAL OBSERVATIONS...

CITY           SKY/WX    TMP DP  RH WIND       PRES   REMARKS
COLBY KS       SUNNY     68  61  77 NE8       30.27F
NORTON KS      SUNNY     68  61  77 N7        30.27F
SHARON SPRINGS   N/A     64  58  82 NE14        N/A
KIT CARSON CO    N/A     67  55  64 MISG        N/A
$$


USA.gov is the U.S. government's official web portal to all federal, state and local government web resources and services.